Stations météo

réclame
Mon MeteoGroup
Skillinge, Suède (2625): Température de l'air & dewpoint: 15.01.2019 17:00:00 - 21.01.2019 17:00:00 (CET)Skillinge, Suède (2625): Vitesse du vent & gusts: 15.01.2019 17:00:00 - 21.01.2019 17:00:00 (CET)Skillinge, Suède (2625): Direction du vent: 15.01.2019 17:00:00 - 21.01.2019 17:00:00 (CET)Skillinge, Suède (2625): reduced air pressure: 15.01.2019 17:00:00 - 21.01.2019 17:00:00 (CET)Skillinge, Suède (2625): visibility: 15.01.2019 17:00:00 - 21.01.2019 17:00:00 (CET)Skillinge, Suède (2625): Quantités de précipitations: 15.01.2019 17:00:00 - 21.01.2019 17:00:00 (CET)
Date & Time tt [°C] td [°C] ff [km/h] ff [knt] fx [km/h] fx [knt] dd ppp [hPa] vv [km] rr [mm]
21.01.2019 17:00:00 - - - - - - - - - -
21.01.2019 16:00:00 1,0 0,7 16 9 36 19 SW 1013,9 6 0,0
21.01.2019 15:00:00 0,5 0,4 26 14 41 22 SW 1014,3 3,4 0,1
21.01.2019 14:00:00 0,0 -0,1 27 15 41 22 SW 1015,0 1,5 0,3
21.01.2019 13:00:00 0,1 -0,3 24 13 38 20 SW 1015,6 3,0 0,2
21.01.2019 12:00:00 0,8 -1,6 23 13 41 22 SW 1016,4 10 0,0
21.01.2019 11:00:00 1,0 -1,6 24 13 41 22 SW 1017,1 11 0,0
21.01.2019 10:00:00 1,0 -1,1 26 14 34 19 SW 1017,4 13 0,0
21.01.2019 09:00:00 1,1 -1,1 16 9 25 13 SW 1017,9 14 0,0
21.01.2019 08:00:00 1,0 -0,3 9 5 24 13 W 1018,0 7 0,0
21.01.2019 07:00:00 0,9 -0,4 14 8 25 14 W 1018,0 7 0,0
21.01.2019 06:00:00 0,8 -0,2 15 8 30 16 W 1018,1 5 0,0
21.01.2019 05:00:00 0,6 -0,5 18 10 30 16 W 1018,4 5 0,0
21.01.2019 04:00:00 0,6 -0,4 16 9 29 16 WSW 1018,8 4,2 0,0
21.01.2019 03:00:00 0,3 -0,6 18 10 29 16 W 1019,6 4,2 0,0
21.01.2019 02:00:00 0,3 -0,6 18 10 26 14 W 1019,8 4,4 0,0
21.01.2019 01:00:00 0,5 -0,2 14 8 23 12 W 1020,0 2,7 0,0
21.01.2019 00:00:00 0,6 -0,3 14 7 23 12 W 1020,0 3,7 0,0
20.01.2019 23:00:00 0,5 -0,1 13 7 23 12 W 1019,9 3,4 0,0
20.01.2019 22:00:00 0,5 -0,1 14 8 21 12 WSW 1019,7 2,0 0,1
20.01.2019 21:00:00 0,6 -0,3 14 8 19 11 W 1019,7 3,6 0,0
20.01.2019 20:00:00 0,6 -0,4 11 6 18 10 W 1019,4 3,5 0,0
20.01.2019 19:00:00 0,8 -0,4 10 5 18 10 W 1019,3 5 0,0
20.01.2019 18:00:00 0,7 -0,6 10 5 18 10 W 1018,8 5 0,0
20.01.2019 17:00:00 0,3 -1,0 9 5 19 10 W 1018,7 4,7 0,0
20.01.2019 16:00:00 0,7 -0,6 9 5 19 10 W 1018,6 5 0,0
20.01.2019 15:00:00 0,8 -0,8 10 5 16 8 W 1018,4 7 0,0
20.01.2019 14:00:00 0,8 -1,1 5 3 20 11 W 1018,5 7 0,0
20.01.2019 13:00:00 0,5 -1,3 10 5 26 14 W 1018,5 7 0,0
20.01.2019 12:00:00 0,4 -1,2 15 8 26 14 W 1018,2 5 0,0
20.01.2019 11:00:00 0,1 -1,3 15 8 26 14 W 1018,2 5 0,0
20.01.2019 10:00:00 -0,7 -2,0 15 8 26 14 W 1017,7 5 0,0
20.01.2019 09:00:00 -1,5 -2,5 8 4 17 9 W 1017,8 5 0,0
20.01.2019 08:00:00 -1,7 -2,7 6 4 18 10 WSW 1017,4 6 0,0
20.01.2019 07:00:00 -1,7 -2,8 11 6 18 10 W 1017,2 7 0,0
20.01.2019 06:00:00 -2,0 -3,1 8 5 21 12 WSW 1017,1 6 0,0
20.01.2019 05:00:00 -0,7 -2,3 12 7 26 14 W 1017,3 10 0,0
20.01.2019 04:00:00 -0,2 -1,8 13 7 26 14 W 1017,5 10 0,0
20.01.2019 03:00:00 0,1 -1,5 16 8 25 13 W 1017,5 11 0,0
20.01.2019 02:00:00 0,2 -1,4 10 6 28 15 W 1017,4 12 0,0
20.01.2019 01:00:00 0,5 -0,9 14 8 28 15 W 1017,6 13 0,0
20.01.2019 00:00:00 0,5 -0,9 15 8 26 14 W 1017,7 14 0,0
19.01.2019 23:00:00 0,6 -0,7 17 9 23 13 WSW 1017,9 9 0,0
19.01.2019 22:00:00 0,8 -0,2 11 6 25 14 WSW 1018,0 7 0,0
19.01.2019 21:00:00 1,0 -0,6 18 10 26 14 W 1017,7 16 0,0
19.01.2019 20:00:00 - - - - 26 14 - - - -
19.01.2019 19:00:00 0,8 -0,4 13 7 26 14 W 1017,5 15 0,0
19.01.2019 18:00:00 0,2 -0,4 15 8 24 13 W 1017,5 9 0,0
19.01.2019 17:00:00 0,3 -0,3 14 7 27 15 W 1017,7 6 0,0
19.01.2019 16:00:00 0,5 -0,2 13 7 29 16 W 1017,6 10 0,0
19.01.2019 15:00:00 0,7 -0,2 18 10 29 16 W 1017,5 15 0,0
19.01.2019 14:00:00 1,0 -0,1 14 8 25 14 W 1017,8 13 0,0
19.01.2019 13:00:00 2,0 0,1 11 6 17 9 WSW 1017,9 19 0,0
19.01.2019 12:00:00 0,9 -0,6 11 6 17 9 W 1018,0 16 0,0
19.01.2019 11:00:00 -0,7 -1,8 10 5 14 7 W 1018,1 15 0,0
19.01.2019 10:00:00 -2,7 -3,5 5 3 18 10 W 1018,0 9 0,0
19.01.2019 09:00:00 -1,6 -2,6 8 4 18 10 WNW 1017,4 12 0,0
19.01.2019 08:00:00 -2,5 -3,2 15 8 18 10 W 1016,8 11 0,0
19.01.2019 07:00:00 -3,8 -4,6 11 6 15 8 W 1016,6 13 0,0
19.01.2019 06:00:00 -3,8 -4,8 9 5 15 8 W 1016,6 16 0,0
19.01.2019 05:00:00 -3,1 -4,1 12 7 17 9 W 1016,5 16 0,0
19.01.2019 04:00:00 -2,1 -3,4 13 7 17 9 W 1016,4 17 0,0
19.01.2019 03:00:00 -2,1 -3,4 11 6 18 10 W 1016,3 22 0,0
19.01.2019 02:00:00 -1,5 -3,1 10 5 18 10 W 1016,1 25 0,0
19.01.2019 01:00:00 -1,3 -3,0 11 6 14 7 WNW 1015,9 36 0,0
19.01.2019 00:00:00 -2,5 -3,9 10 5 14 8 W 1015,5 27 0,0
18.01.2019 23:00:00 -1,7 -3,3 7 4 18 10 W 1015,4 30 0,0
18.01.2019 22:00:00 -2,0 -3,4 9 5 19 10 W 1015,2 22 0,1
18.01.2019 21:00:00 -3,0 -4,3 9 5 18 10 W 1014,7 18 0,0
18.01.2019 20:00:00 -2,3 -3,7 13 7 18 10 W 1014,4 22 0,0
18.01.2019 19:00:00 -1,9 -3,3 13 7 17 9 W 1014,1 28 0,0
18.01.2019 18:00:00 -2,0 -3,4 11 6 17 9 W 1014,0 44 0,0
18.01.2019 17:00:00 -2,0 -3,4 10 5 13 7 W 1013,6 42 0,0
18.01.2019 16:00:00 -1,5 -3,4 8 5 17 9 W 1013,5 50 0,0
18.01.2019 15:00:00 0,2 -2,5 10 5 20 11 W 1012,9 44 0,0
18.01.2019 14:00:00 0,7 -2,2 13 7 20 11 W 1012,7 48 0,0
18.01.2019 13:00:00 1,1 -1,6 11 6 19 10 W 1012,4 37 0,0
18.01.2019 12:00:00 0,2 -2,2 12 7 22 12 W 1012,0 44 0,0
18.01.2019 11:00:00 -0,2 -3,7 13 7 24 13 W 1011,8 38 0,0
18.01.2019 10:00:00 -1,1 -3,8 13 7 24 13 W 1011,0 44 0,0
18.01.2019 09:00:00 -2,1 -4,1 12 6 21 12 WNW 1010,0 50 0,0
18.01.2019 08:00:00 -3,7 -5,9 13 7 21 11 WNW 1009,2 50 0,0
18.01.2019 07:00:00 -3,9 -6,5 12 7 22 12 WNW 1008,4 50 0,0
18.01.2019 06:00:00 -4,3 -6,7 11 6 22 12 NW 1007,8 50 0,0
18.01.2019 05:00:00 - - - - 26 14 - - - -
18.01.2019 04:00:00 -3,8 -5,9 15 8 26 14 NW 1006,3 50 0,0
18.01.2019 03:00:00 -3,1 -5,4 16 9 24 13 NNW 1005,2 50 0,0
18.01.2019 02:00:00 -2,6 -5,1 13 7 28 15 NNW 1004,0 50 0,0
18.01.2019 01:00:00 -1,6 -3,8 14 8 31 17 NNW 1002,6 50 0,0
18.01.2019 00:00:00 -1,2 -3,4 16 8 31 17 NNW 1001,4 50 0,0
17.01.2019 23:00:00 -0,7 -3,2 16 9 32 17 N 999,9 50 0,0
17.01.2019 22:00:00 -0,7 -2,3 18 10 32 17 N 998,3 50 0,0
17.01.2019 21:00:00 -0,7 -1,4 15 8 31 17 N 997,2 19 0,0
17.01.2019 20:00:00 -0,3 -0,6 17 9 36 19 N 995,6 19 0,0
17.01.2019 19:00:00 0,0 -0,1 20 11 36 19 NNE 993,7 3,2 1,1
17.01.2019 18:00:00 0,6 -0,1 10 6 38 20 N 992,4 2,5 0,5
17.01.2019 17:00:00 4,1 2,8 22 12 47 25 WSW 991,2 9 0,3
17.01.2019 16:00:00 4,3 2,5 27 14 47 25 SW 990,8 18 0,0
17.01.2019 15:00:00 4,6 3,1 26 14 51 28 WSW 990,7 15 0,7
17.01.2019 14:00:00 4,4 2,3 29 16 52 28 WSW 990,9 24 0,0
17.01.2019 13:00:00 5,0 2,7 29 16 53 29 WSW 990,8 25 0,0
17.01.2019 12:00:00 5,1 3,1 31 17 57 31 WSW 990,8 23 0,0
17.01.2019 11:00:00 4,9 3,1 33 18 57 31 WSW 990,6 13 0,1
17.01.2019 10:00:00 4,9 3,1 32 18 55 30 WSW 990,1 10 0,0
17.01.2019 09:00:00 4,4 2,6 34 18 50 27 WSW 989,8 21 0,0
17.01.2019 08:00:00 4,3 2,6 31 17 47 25 WSW 989,2 25 0,0
17.01.2019 07:00:00 4,5 3,0 28 15 48 26 WSW 988,9 23 0,0
17.01.2019 06:00:00 4,5 3,2 29 16 49 26 WSW 988,9 38 0,0
17.01.2019 05:00:00 4,3 3,1 23 12 59 32 WSW 989,1 10 0,2
17.01.2019 04:00:00 4,7 3,5 39 21 62 34 WSW 989,3 9 0,3
17.01.2019 03:00:00 4,6 3,6 39 21 62 34 WSW 989,5 4,7 0,1
17.01.2019 02:00:00 4,6 3,4 39 21 68 37 SW 990,2 3,5 0,0
17.01.2019 01:00:00 5,1 3,4 39 21 72 39 SW 990,8 11 0,0
17.01.2019 00:00:00 5,2 3,7 41 22 72 39 SW 991,3 9 0,0
16.01.2019 23:00:00 5,3 4,3 43 23 68 37 WSW 992,0 5 0,2
16.01.2019 22:00:00 5,4 4,5 42 23 68 37 WSW 992,9 7 0,0
16.01.2019 21:00:00 5,5 4,8 39 21 67 36 WSW 993,5 3,8 0,0
16.01.2019 20:00:00 5,7 5,0 34 18 57 31 SW 993,9 7 0,0
16.01.2019 19:00:00 5,8 5,2 37 20 57 31 WSW 994,4 5 0,5
16.01.2019 18:00:00 5,8 5,4 32 17 52 28 SW 995,3 2,1 0,4
16.01.2019 17:00:00 5,5 4,9 29 16 49 26 SW 996,0 2,5 0,4
16.01.2019 16:00:00 5,5 4,8 26 14 48 26 SW 996,8 6 0,0
16.01.2019 15:00:00 6,0 4,6 30 16 52 28 WSW 997,3 10 0,0
16.01.2019 14:00:00 6,3 4,9 33 18 52 28 WSW 997,7 11 0,0
16.01.2019 13:00:00 6,1 5,0 29 16 47 25 WSW 998,3 6 0,0
16.01.2019 12:00:00 5,9 4,7 26 14 48 26 WSW 998,9 10 0,0
16.01.2019 11:00:00 6,1 5,1 29 15 40 22 WSW 999,3 10 0,0
16.01.2019 10:00:00 5,3 5,0 19 10 26 14 WSW 999,7 8 0,0
16.01.2019 09:00:00 3,7 3,3 10 5 17 9 SSW 1000,2 3,4 0,2
16.01.2019 08:00:00 3,8 2,9 10 6 17 9 WSW 1000,3 7 0,0
16.01.2019 07:00:00 3,9 2,3 7 4 16 9 W 1000,4 41 0,0
16.01.2019 06:00:00 3,8 2,2 9 5 13 7 WSW 1000,7 19 0,0
16.01.2019 05:00:00 3,9 2,6 7 4 19 10 WSW 1000,9 11 0,0
16.01.2019 04:00:00 4,6 2,8 8 5 25 13 W 1000,8 11 0,0
16.01.2019 03:00:00 4,9 2,9 16 8 25 13 W 1000,8 11 0,0
16.01.2019 02:00:00 4,4 2,4 15 8 22 12 W 1000,3 11 0,0
16.01.2019 01:00:00 5,1 2,6 15 8 24 13 W 1000,1 11 0,0
16.01.2019 00:00:00 5,1 2,6 15 8 28 15 W 999,6 11 0,0
15.01.2019 23:00:00 4,9 2,4 17 9 37 20 W 999,1 11 0,0
15.01.2019 22:00:00 5,3 2,5 18 10 44 24 WNW 998,7 11 0,0
15.01.2019 21:00:00 5,4 2,4 20 11 44 24 WNW 997,9 11 0,0
15.01.2019 20:00:00 5,4 2,4 23 12 51 28 WNW 996,8 11 0,0
15.01.2019 19:00:00 5,8 2,8 27 14 51 28 WNW 995,8 13 0,0
15.01.2019 18:00:00 5,9 3,4 27 15 44 24 W 995,0 18 0,0
15.01.2019 17:00:00 5,0 4,3 25 14 42 23 W 995,1 50 0,4

tt = Température de l'air
td = dewpoint
ff = Vitesse du vent
fx = gusts
dd = Direction du vent
ppp = reduced air pressure
vv = visibility
rr = Quantités de précipitations

stations d'obs. à proximité